Flag for Canada Weather past 2 weeks in Churchill, Manitoba, Canada

Now
48 °F

Fog.


Feels Like: 46 °F
Forecast: 47 / 51 °F
Wind: 6 mph from North

Location: Churchill

Current Time: Aug 4, 2015 at 10:02:52 PM

Latest Report: Aug 4, 2015 at 9:00 PM


Visibility: 0 mi

Pressure: 30.12 "Hg

Humidity: 94%

Dew point: 46 °F

Location of ChurchillLocation

Historic Weather in Churchill — Graph

°F

Churchill temperature yesterday

Maximum temperature yesterday: 50 °F (at 12:00 PM)
Minimum temperature yesterday: 45 °F (at 12:00 AM)
Average temperature yesterday: 47 °F

Past Weeks' High & Low Weather Summary

 TemperatureHumidityPressure
High77 °F (Jul 26, 3:00 PM)100% (Jul 22, 10:00 PM)30.12 "Hg (Jul 22, 10:00 PM)
Low45 °F (Jul 23, 6:00 AM)49% (Jul 21, 5:00 PM)29.45 "Hg (Aug 1, 10:00 AM)
Average54 °F87%29.73 "Hg
* Reported Jul 20 9:00 PM — Aug 4 9:00 PM, Churchill, Weather by CustomWeather, © 2015

Note: Actual official high and low records may vary slightly from our data, if they occured in-between our weather recording intervals... More about our weather records

Advertising

Churchill weather history for previous 24 hours

 ConditionsComfort  
Time TempWeatherWind HumidityBarometerVisibility
9:00 PM
Tue, Aug 4
48 °FFog.6 mph94%30.12 "Hg1 mi
8:51 PM48 °FFog.6 mph94%30.12 "Hg1 mi
8:00 PM48 °FPartly sunny.5 mph94%30.12 "Hg15 mi
7:00 PM48 °FLow clouds.9 mph94%30.11 "Hg15 mi
6:00 PM48 °FLow clouds.9 mph87%30.11 "Hg15 mi
5:00 PM48 °FLow clouds.10 mph94%30.11 "Hg15 mi
4:00 PM48 °FLow clouds.10 mph87%30.11 "Hg15 mi
3:00 PM48 °FPartly sunny.6 mph87%30.11 "Hg15 mi
2:00 PM48 °FLow clouds.6 mph87%30.09 "Hg15 mi
1:00 PM48 °FPartly sunny.7 mph87%30.08 "Hg15 mi
12:00 PM48 °FOvercast.7 mph87%30.07 "Hg15 mi
11:00 AM48 °FOvercast.12 mph87%30.06 "Hg15 mi
10:00 AM48 °FOvercast.9 mph87%30.05 "Hg15 mi
9:00 AM50 °FPartly sunny.10 mph88%30.04 "Hg15 mi
8:00 AM48 °FMostly cloudy.8 mph87%30.04 "Hg15 mi
7:00 AM46 °FLow clouds.9 mph93%30.03 "Hg15 mi
6:00 AM46 °FDrizzle. Low clouds.8 mph93%30.01 "Hg15 mi
5:00 AM46 °FDrizzle. Fog.10 mph93%30.01 "Hg4 mi
4:00 AM46 °FDrizzle. Fog.14 mph93%29.99 "Hg4 mi
3:00 AM46 °FDrizzle. Low clouds.12 mph93%29.98 "Hg8 mi
2:51 AM46 °FDrizzle. Low clouds.12 mph93%29.98 "Hg8 mi
2:00 AM46 °FDrizzle. Overcast.10 mph93%29.98 "Hg10 mi
1:00 AM46 °FDrizzle. Fog.8 mph100%29.97 "Hg3 mi
12:00 AM46 °FDrizzle. Fog.9 mph100%29.96 "Hg3 mi
11:00 PM
Mon, Aug 3
46 °FDrizzle. Fog.9 mph100%29.96 "Hg3 mi
10:00 PM46 °FDrizzle. Fog.12 mph100%29.96 "Hg3 mi
Weather by CustomWeather, © 2015

See weather overviewHow to use our weather pages